ASTRA 2A

Last updated on Wed May 21 2025 00:02:41 GMT+0000 (Coordinated Universal Time)

1 25462U 98050A 25140.47058679 -.00000003 00000+0 00000+0 0 9991 2 25462 6.1031 73.5453 0024599 49.0913 196.1466 0.98659005 42397
UTC large
Height (km)
Speed (km/s)
/
Latitude / Longitude
Inclination (degrees)
Orbital Period (minutes)
Azimuth
Elevation
Range (km)
Doppler Factor

Next 0 passes for location: London (51.5072 / 0.1276)

Sorry there are no passes over London.